Fullerton, CA

4:57 PM PST on December 08, 2016 (GMT -0800)
Fullerton Municipal

Weather History for KFUL - July, 2012

Change the Weather History Date:

Wednesday, July 25, 2012

  Actual Average Record
Temperature  
Mean Temperature 74 °F 74 °F  
Max Temperature 83 °F 84 °F 95 °F (2016)
Min Temperature 64 °F 65 °F 61 °F (2010)
Degree Days  
Heating Degree Days 0 0  
Month to date heating degree days 0 0  
Since 1 June heating degree days 0 2  
Since 1 July heating degree days 0 0  
Cooling Degree Days 9 10  
Month to date cooling degree days 253 214  
Year to date cooling degree days 718 482  
Since 1 June cooling degree days 462 359  
Growing Degree Days 23 (Base 50)    
Moisture  
Dew Point 56 °F    
Average Humidity 59    
Maximum Humidity 78    
Minimum Humidity 40    
Precipitation  
Precipitation 0.00 in 0.00 in 0.00 in (2016)
Month to date precipitation 0.01 0.03  
Year to date precipitation 3.54 9.68  
Since 1 July precipitation 0.01  
Snow  
Snow 0.00 in - - ()
Month to date snowfall 0.0  
Year to date snowfall 0.0  
Snow Depth 0.00 in    
Sea Level Pressure  
Sea Level Pressure 29.97 in    
Wind  
Wind Speed 3 mph (West)    
Max Wind Speed 13 mph    
Max Gust Speed 15 mph    
Visibility 9 miles    
Events      
T = Trace of Precipitation, MM = Missing Value Source: NWS Daily Summary

Daily Weather History Graph

Daily Weather History Graph

Search for Another Location

Airport or City:

Trip Planner

Search our weather history database for the weather conditions in past years. The results will help you decide how hot, cold, wet, or windy it might be!

Date:

Astronomy

Jul. 25, 2012 Rise Set
Actual Time 5:59 AM PDT 7:57 PM PDT
Civil Twilight 5:31 AM PDT 8:25 PM PDT
Nautical Twilight 4:57 AM PDT 8:58 PM PDT
Astronomical Twilight 4:21 AM PDT 9:34 PM PDT
Moon 12:45 PM PDT (7/25) 11:51 PM PDT (7/25)
Length of Visible Light 14h 53m
Length of Day
13h 58m
Waxing Crescent, 43% of the Moon is Illuminated
Jul 25
Waxing Crescent
Jul 26
First Quarter
Aug 1
Full
Aug 9
Last Quarter
Aug 17
New

Hourly Weather History & Observations

Time (PDT) Temp. Heat Index Dew Point Humidity Pressure Visibility Wind Dir Wind Speed Gust Speed Precip Events Conditions
12:53 AM 64.9 °F - 57.0 °F 75% 29.97 in 10.0 mi WNW 3.5 mph - N/A   Clear
1:53 AM 64.9 °F - 57.0 °F 75% 29.96 in 10.0 mi Variable 3.5 mph - N/A   Clear
2:53 AM 64.0 °F - 55.9 °F 75% 29.96 in 10.0 mi Calm Calm - N/A   Clear
3:09 AM 64.4 °F - 55.4 °F 73% 29.97 in 10.0 mi NW 3.5 mph - N/A   Mostly Cloudy
3:53 AM 64.0 °F - 55.9 °F 75% 29.97 in 10.0 mi Calm Calm - N/A   Overcast
4:11 AM 64.4 °F - 55.4 °F 73% 29.97 in 10.0 mi Calm Calm - N/A   Overcast
4:53 AM 64.0 °F - 55.9 °F 75% 29.98 in 10.0 mi WNW 3.5 mph - N/A   Overcast
5:53 AM 64.0 °F - 55.9 °F 75% 29.99 in 8.0 mi Calm Calm - N/A   Overcast
6:53 AM 64.9 °F - 55.9 °F 73% 30.01 in 6.0 mi Calm Calm - N/A   Haze
7:53 AM 66.0 °F - 55.9 °F 70% 30.02 in 7.0 mi Calm Calm - N/A   Overcast
8:53 AM 66.0 °F - 55.9 °F 70% 30.03 in 7.0 mi Calm Calm - N/A   Overcast
9:21 AM 68.0 °F - 55.4 °F 64% 30.02 in 7.0 mi Calm Calm - N/A   Overcast
9:53 AM 69.1 °F - 55.9 °F 63% 30.01 in 7.0 mi Calm Calm - N/A   Overcast
10:51 AM 73.4 °F - 57.2 °F 57% 30.01 in 8.0 mi Variable 4.6 mph - N/A   Scattered Clouds
10:53 AM 73.0 °F - 57.0 °F 57% 30.01 in 8.0 mi SW 4.6 mph - N/A   Scattered Clouds
11:53 AM 75.0 °F - 55.9 °F 51% 29.99 in 8.0 mi Calm Calm - N/A   Clear
12:53 PM 81.0 °F 80.8 °F 55.9 °F 42% 29.98 in 10.0 mi Variable 3.5 mph - N/A   Clear
1:53 PM 80.1 °F 80.4 °F 57.0 °F 45% 29.96 in 10.0 mi SW 9.2 mph - N/A   Clear
2:53 PM 81.0 °F 80.8 °F 55.9 °F 42% 29.95 in 10.0 mi SSW 9.2 mph - N/A   Clear
3:53 PM 80.1 °F 80.2 °F 55.9 °F 43% 29.94 in 10.0 mi SSW 8.1 mph - N/A   Clear
4:53 PM 82.0 °F 81.6 °F 55.9 °F 41% 29.92 in 10.0 mi Variable 6.9 mph - N/A   Clear
5:53 PM 81.0 °F 80.7 °F 55.0 °F 41% 29.91 in 10.0 mi Variable 6.9 mph - N/A   Clear
6:53 PM 77.0 °F - 55.9 °F 48% 29.91 in 10.0 mi West 5.8 mph - N/A   Clear
7:53 PM 72.0 °F - 55.9 °F 57% 29.93 in 10.0 mi Variable 3.5 mph - N/A   Clear
8:53 PM 69.1 °F - 55.9 °F 63% 29.95 in 10.0 mi WNW 5.8 mph - N/A   Clear
9:53 PM 66.9 °F - 55.9 °F 68% 29.96 in 10.0 mi West 4.6 mph - N/A   Clear
10:53 PM 66.0 °F - 57.0 °F 73% 29.97 in 10.0 mi West 4.6 mph - N/A   Clear
11:53 PM 66.0 °F - 57.0 °F 73% 29.97 in 10.0 mi NW 3.5 mph - N/A   Clear